Wind_Speed
16 14 12 11 11 11 13 14 15 15 15 15 14 14 14 13 13 13 13 13 13 12 12 12 12 13 13 13 14 14 14 14 15 16 16 15 15 14 13 13 11 11 10 10 10 11 12 12 13 14 15 15 14 13 13 13 12 11 10 8 8 7 7 6 6 5 4 4 3 3 3 3 2 1 0 0 0 1 2 2 3 3 3 3 4
13 12 11 11 11 12 13 14 15 15 15 14 14 14 13 13 13 13 13 12 12 12 11 12 12 12 13 13 14 15 15 15 16 17 17 16 15 14 14 13 12 12 11 10 11 11 12 13 14 15 15 15 14 13 13 12 11 10 9 8 8 7 7 6 6 5 4 4 3 3 3 3 1 1 0 0 1 2 2 2 3 3 3 3 4
12 11 11 11 12 13 14 14 15 15 15 14 14 13 13 13 13 13 12 12 12 11 11 11 11 12 13 13 14 15 15 16 17 18 17 17 16 15 14 14 13 13 12 11 11 12 13 13 14 15 15 14 13 13 12 11 10 9 8 8 7 7 7 6 6 5 5 4 4 3 3 2 2 1 1 1 2 2 2 2 3 3 3 3 3
10 10 11 12 13 13 14 14 14 15 14 14 13 13 13 13 13 13 12 11 11 11 11 11 11 12 12 13 14 15 16 16 17 18 18 17 17 15 14 14 13 13 12 12 12 12 13 13 14 15 15 14 13 13 12 11 10 9 9 8 8 7 7 7 6 6 5 5 4 3 3 2 2 1 1 1 2 2 2 2 2 2 3 3 3
10 10 11 12 12 13 14 13 13 14 13 13 13 13 13 13 13 12 11 11 10 10 11 11 12 12 12 13 13 14 15 16 17 18 18 17 17 16 14 13 13 12 13 12 12 12 13 13 14 15 15 14 13 12 11 11 10 9 9 8 8 7 7 7 7 6 5 4 3 3 2 2 2 1 1 1 2 2 2 2 2 2 2 3 3
10 10 11 11 12 13 13 13 13 13 13 13 12 13 13 12 12 12 11 10 10 10 10 11 12 12 12 13 13 14 15 16 17 17 18 18 18 17 15 14 13 12 13 13 13 13 13 13 14 15 15 14 13 12 11 10 10 9 9 8 8 7 7 6 6 5 4 3 3 2 2 1 1 1 1 1 1 1 2 2 2 3 3 3 3
10 10 10 11 11 12 12 12 12 12 12 12 12 13 13 13 12 12 11 11 10 10 10 11 12 13 13 13 13 13 14 15 16 17 18 18 18 18 16 14 13 13 13 13 13 13 13 13 14 14 14 14 12 11 10 10 10 10 9 8 8 7 7 6 5 5 4 3 3 2 2 1 1 1 1 1 2 2 2 3 3 3 4 4 4
9 10 10 10 11 11 12 11 11 12 12 12 12 13 13 13 13 12 12 11 11 11 11 11 12 13 13 13 13 13 14 15 16 18 19 19 19 19 17 15 13 13 13 13 13 14 13 13 13 14 14 13 12 10 9 9 10 9 9 8 8 7 7 6 6 5 5 4 3 2 2 2 1 1 1 2 2 3 3 3 4 4 4 4 4
9 10 10 10 10 10 10 11 11 12 12 13 13 13 14 14 14 13 13 12 12 11 11 11 12 13 13 14 13 13 13 14 15 17 19 19 20 19 18 16 14 13 12 13 13 14 13 13 13 13 14 13 11 10 9 9 10 10 9 8 8 7 7 6 6 6 5 5 4 3 2 2 2 2 2 2 3 3 4 4 4 4 4 4 4
10 10 10 10 9 9 9 10 11 12 13 14 14 14 15 15 15 14 14 13 12 12 11 11 12 13 13 14 14 13 13 14 15 17 18 19 20 20 19 17 15 13 12 12 13 14 13 13 13 13 13 13 11 9 8 8 9 9 9 9 9 8 8 7 7 6 6 5 4 3 3 3 2 2 2 3 3 4 4 5 5 5 5 5 5
11 11 10 10 9 9 10 11 12 13 14 15 15 15 16 15 15 15 14 14 13 12 12 12 12 13 14 14 14 14 13 13 14 16 17 19 20 20 19 18 15 13 12 12 13 14 14 14 13 13 13 12 11 9 8 7 8 8 8 8 9 9 8 8 8 7 6 5 5 4 4 3 3 2 3 3 4 5 5 6 6 6 6 5 6
11 11 11 10 10 10 11 12 13 14 15 16 16 16 16 16 16 15 15 14 13 13 12 12 12 13 14 15 15 14 13 13 14 15 17 18 19 20 19 18 16 13 11 11 12 14 15 14 14 12 12 12 11 10 8 7 7 6 7 7 8 8 8 8 8 7 6 5 5 4 4 4 3 3 3 3 4 5 5 6 6 7 6 6 6
12 12 11 10 11 11 12 13 14 15 16 16 17 17 17 17 17 16 15 14 13 13 13 13 13 13 14 15 16 15 14 13 14 15 16 17 18 19 19 18 17 13 11 11 12 14 15 14 14 12 12 12 11 10 9 7 6 5 6 6 7 8 8 8 8 8 7 6 6 5 5 4 4 4 3 3 4 5 6 6 7 7 7 7 7
12 12 11 11 12 12 13 14 15 16 16 17 17 17 18 18 17 17 16 15 14 14 13 14 13 13 14 16 16 16 14 13 13 15 16 16 17 18 19 18 17 14 11 10 11 13 15 14 13 12 11 11 11 10 9 7 6 5 5 6 7 8 9 9 8 8 8 8 7 6 6 5 5 4 4 4 5 5 6 6 7 7 7 8 8
12 12 12 12 12 13 14 15 16 16 17 18 18 18 18 18 18 17 16 16 15 14 15 15 14 13 14 16 17 17 15 14 13 15 16 16 17 18 18 17 17 16 12 10 11 13 14 14 13 12 11 11 11 10 9 8 6 6 6 6 7 8 9 9 9 9 9 9 8 8 7 6 6 5 5 5 6 6 6 7 7 7 7 8 8
13 13 13 13 13 14 15 16 17 17 18 18 19 18 18 18 18 17 17 16 16 16 16 16 15 14 15 16 17 18 17 14 14 14 16 17 18 18 18 17 16 16 13 10 10 12 14 14 12 11 11 11 11 10 9 8 7 6 6 6 7 8 9 10 10 10 9 9 9 9 8 8 7 7 6 6 6 7 7 7 8 8 8 8 8
14 14 13 13 14 15 16 17 17 17 18 19 18 18 18 18 18 18 17 17 17 17 17 17 15 14 15 17 18 18 18 15 14 15 16 17 18 19 19 17 16 15 15 12 10 11 13 13 11 10 10 11 10 10 9 8 8 7 7 7 8 9 9 11 11 11 10 10 9 9 8 8 8 8 7 7 7 8 8 8 9 9 9 9 9
15 15 14 14 15 15 15 16 16 16 17 17 18 18 18 18 18 18 18 18 18 17 17 17 16 16 16 17 18 19 19 16 14 15 17 19 18 19 19 18 16 15 15 14 11 10 13 13 11 10 10 10 10 9 9 8 8 8 8 8 9 10 11 12 12 11 11 10 10 9 9 9 9 9 8 8 8 8 9 9 9 10 10 10 10
16 16 16 16 15 15 15 15 15 15 16 16 17 18 18 19 19 19 19 19 18 18 18 18 17 17 17 18 19 19 20 18 16 16 18 20 19 18 19 18 16 15 15 15 12 10 12 13 11 10 10 9 9 9 8 8 8 8 8 9 10 11 12 13 13 12 11 11 10 10 10 10 9 9 8 8 9 9 9 10 10 10 10 10 10
17 17 17 18 17 16 17 17 16 15 15 15 16 18 18 19 19 19 20 19 19 18 18 19 18 18 19 19 19 20 20 19 17 17 19 20 19 18 18 18 17 15 15 14 13 11 11 12 11 10 9 9 9 8 8 8 9 9 9 9 10 11 12 13 13 12 12 11 10 10 10 10 10 9 8 9 9 10 11 11 11 11 11 11 11
17 19 20 21 20 20 22 20 17 15 14 15 17 17 18 19 20 20 20 20 20 19 20 20 19 19 19 19 20 21 20 19 18 18 19 20 19 19 18 18 17 16 16 14 13 12 11 11 11 10 9 9 8 8 8 9 9 9 9 9 10 11 12 12 12 11 11 11 10 10 10 10 10 10 10 10 11 11 12 12 12 12 12 12 12
19 22 24 22 21 22 23 21 17 14 16 19 19 17 18 19 19 20 21 21 21 21 21 20 19 20 20 20 21 21 21 21 20 20 20 20 20 19 19 18 18 17 18 15 13 13 12 11 11 10 9 9 8 8 8 9 10 9 9 9 10 10 11 11 10 10 10 10 10 10 11 11 11 11 12 12 13 14 14 14 14 13 13 13 13
21 24 23 22 21 21 21 20 17 16 20 22 19 16 18 19 19 20 21 22 22 22 21 20 19 20 21 21 22 21 22 22 23 22 21 20 20 20 19 17 17 17 17 16 13 13 12 11 11 11 10 9 8 7 8 9 9 9 9 9 10 10 11 11 10 10 10 11 11 11 12 13 13 13 13 14 15 15 15 15 15 15 15 14 14
23 24 23 22 22 21 18 18 18 20 23 22 17 14 16 18 19 20 21 22 23 22 20 20 20 20 21 22 22 22 23 24 24 24 22 21 20 20 19 16 16 14 14 16 14 13 13 12 12 12 11 10 9 7 8 9 9 9 9 9 9 10 10 10 10 11 11 11 11 11 12 12 12 12 13 14 15 16 16 16 16 16 15 15 15
23 23 23 23 22 20 19 19 21 24 25 20 17 15 16 18 20 20 21 22 21 20 20 20 21 21 22 22 23 23 24 25 26 25 22 21 21 19 17 16 17 15 14 16 15 13 13 13 13 13 12 12 10 8 8 8 9 9 9 8 9 9 10 10 10 10 10 10 10 10 10 11 11 12 13 14 15 16 17 17 17 16 16 16 16
22 21 22 23 22 19 19 22 21 22 21 18 18 17 18 19 20 21 21 21 20 20 20 21 22 22 22 22 23 25 26 26 26 25 23 22 21 18 15 16 18 17 16 16 15 15 14 14 14 14 14 13 11 9 9 9 9 9 9 8 8 8 9 9 9 9 9 10 10 10 10 11 11 12 13 15 16 16 17 17 17 17 16 16 16
22 22 23 24 22 21 22 22 20 19 17 16 18 21 20 19 21 22 22 21 21 21 21 22 22 22 23 23 24 26 27 27 26 25 23 22 20 16 15 15 15 14 15 15 15 16 15 15 15 15 15 15 12 10 10 9 9 9 9 8 7 8 8 9 9 9 10 10 10 10 11 11 12 13 14 15 16 16 16 16 16 16 16 16 16
22 22 23 23 23 24 24 20 18 17 15 17 21 22 21 20 22 23 23 23 23 23 23 23 23 23 24 24 25 26 27 27 26 25 24 22 19 17 15 14 13 12 13 14 16 16 16 16 17 17 16 16 14 12 11 9 9 10 9 7 7 8 9 9 9 9 10 10 10 10 11 11 12 13 14 15 15 15 15 15 15 16 16 16 15
21 21 22 23 24 25 24 19 15 14 11 14 19 21 21 22 23 24 26 26 26 25 25 24 24 24 25 25 26 27 27 27 26 25 24 22 19 17 15 13 13 14 15 16 16 17 17 17 18 17 16 16 15 13 12 10 9 10 9 7 7 8 9 9 10 10 10 10 10 10 10 11 12 13 14 14 13 14 15 15 15 15 15 15 14
20 20 21 21 22 23 23 22 17 14 13 12 13 17 19 21 23 24 27 28 27 26 25 25 25 26 26 26 27 27 27 26 25 25 24 21 19 17 15 15 15 16 16 16 17 17 17 18 18 17 15 16 15 13 12 11 9 10 9 8 8 8 8 9 10 10 10 10 10 10 10 11 12 13 13 13 13 13 14 15 15 14 14 13 12
21 21 21 21 22 22 21 20 19 19 18 16 14 15 18 21 22 23 26 27 26 26 25 25 26 26 27 27 27 27 26 25 24 23 22 20 20 18 17 17 17 17 17 16 16 17 18 18 18 17 15 16 15 13 13 12 10 10 9 9 9 9 8 9 10 10 10 9 10 10 10 12 13 13 13 12 13 13 13 14 15 14 13 12 10
22 22 23 23 22 21 19 19 20 20 20 20 19 19 20 21 22 23 25 25 25 25 25 25 25 26 26 26 26 26 24 23 23 21 20 19 19 19 19 18 18 18 18 17 17 18 19 19 18 17 16 16 16 14 14 13 11 10 10 10 10 9 9 9 10 10 10 10 10 10 11 12 13 13 12 12 12 12 13 14 14 13 12 11 9
22 22 22 21 20 19 19 18 19 19 19 20 22 21 20 21 23 24 25 25 25 26 27 27 26 26 27 28 27 25 24 23 22 20 19 19 20 20 20 19 19 20 20 19 19 19 19 19 19 18 16 17 16 15 15 14 11 10 10 11 11 10 10 10 11 10 10 11 11 11 11 12 13 12 12 12 11 11 12 13 13 12 11 10 9
21 21 21 20 19 18 18 17 16 17 17 19 20 19 18 20 23 24 25 26 25 26 28 28 27 26 27 28 28 26 24 23 23 21 20 20 20 21 21 20 20 21 22 22 21 20 20 20 19 18 17 17 17 16 16 14 12 11 11 11 11 11 11 11 11 10 11 11 11 11 11 12 13 12 12 12 11 11 12 13 13 12 10 9 8
21 20 19 18 17 16 15 14 14 15 16 17 18 18 18 19 21 22 23 23 23 24 26 27 27 27 27 28 28 28 26 25 24 22 21 21 21 21 21 21 21 22 23 23 22 21 20 20 19 18 18 18 18 17 16 15 13 12 12 11 11 11 11 11 11 10 11 12 12 12 11 12 13 13 12 12 11 11 12 13 13 12 10 9 7
20 19 18 16 15 15 14 14 14 15 16 17 18 19 19 19 19 18 18 19 20 21 23 25 26 26 28 28 28 29 29 28 26 24 23 23 22 21 21 21 21 22 22 23 22 21 20 20 19 18 18 18 18 17 16 16 14 13 12 12 11 12 12 12 11 11 12 12 12 12 11 12 13 12 12 11 11 11 13 13 13 12 10 8 6
21 19 16 15 14 14 14 14 15 16 17 18 18 19 20 20 19 18 18 19 20 20 21 21 22 24 26 27 27 28 29 28 27 26 25 24 23 21 21 22 22 22 22 22 21 20 20 20 20 19 19 19 18 17 17 16 15 14 14 13 13 13 13 13 12 12 12 13 12 12 11 11 12 12 11 11 11 12 14 13 13 12 9 7 5
20 17 15 13 14 13 13 13 15 16 18 18 19 20 20 21 21 21 21 21 21 21 19 20 21 23 24 24 25 25 26 25 25 26 26 25 23 21 21 22 22 22 22 21 21 20 20 21 21 20 19 20 19 17 16 16 16 16 16 15 14 14 14 13 12 12 12 13 12 12 11 11 11 12 11 11 12 13 14 13 13 11 8 6 4
18 15 13 13 13 13 13 13 14 16 17 18 19 20 21 22 22 23 23 23 23 23 22 22 22 23 23 22 23 24 24 24 24 24 26 25 23 21 21 21 22 22 22 21 21 21 20 21 21 20 19 20 20 18 17 16 16 16 17 16 15 15 13 12 12 12 12 13 13 12 11 11 11 11 11 11 12 13 13 13 12 8 7 7 4
16 14 13 13 13 14 14 14 14 15 17 18 19 21 22 23 23 23 25 26 27 28 26 24 22 22 22 21 23 24 24 24 24 24 26 25 22 22 22 21 22 22 22 22 22 21 20 20 20 19 18 19 21 20 19 17 16 15 15 16 16 15 13 12 12 12 12 13 13 12 12 11 11 11 11 11 12 12 11 11 11 8 6 6 4
15 14 14 13 13 14 14 14 14 14 16 17 19 21 22 24 24 24 25 27 30 31 30 27 24 23 22 21 23 25 25 26 25 26 27 26 23 23 23 22 22 22 22 22 22 21 19 19 19 18 17 19 21 20 19 18 17 16 14 15 15 15 14 13 12 12 12 13 13 12 12 12 11 11 11 11 11 11 9 9 10 9 7 5 3
15 15 14 14 15 15 15 15 15 15 16 17 19 20 22 23 24 23 24 24 26 29 28 27 25 23 21 22 24 25 25 26 27 26 26 26 24 24 23 23 23 22 22 22 22 20 19 19 19 18 18 19 19 19 18 18 18 15 14 14 15 15 15 14 13 12 12 13 13 12 13 12 12 11 10 10 10 10 8 8 8 9 8 5 3
16 16 16 16 16 16 15 15 16 16 17 19 20 21 22 23 24 23 24 23 24 26 26 25 24 22 22 22 25 26 26 27 28 26 25 24 23 24 24 24 24 23 24 23 22 21 20 19 19 19 19 19 18 18 17 17 16 14 14 15 16 16 16 14 13 12 13 13 13 13 13 13 13 12 11 10 10 9 9 9 9 8 8 6 4
17 17 16 16 15 14 14 14 15 16 17 19 21 22 23 24 24 23 23 23 23 24 23 22 23 23 23 22 24 26 26 27 28 27 25 24 23 24 24 24 24 24 24 24 23 22 22 21 20 21 21 20 19 17 17 16 15 14 15 16 16 16 15 14 13 12 13 13 13 13 12 12 13 13 11 10 10 10 10 10 10 9 8 7 7
18 17 16 16 15 14 14 14 14 14 15 16 19 21 23 26 26 24 22 21 22 23 23 22 22 22 23 23 24 26 26 27 29 28 26 24 23 24 24 23 23 23 24 25 23 22 22 22 22 23 22 21 19 18 18 18 16 16 16 15 17 17 15 15 14 13 14 13 13 14 12 12 14 14 12 10 10 10 11 11 11 11 10 9 8
18 17 17 17 16 16 16 15 14 12 12 14 16 19 22 25 27 27 23 20 20 22 24 24 23 23 24 24 25 27 27 28 30 29 27 24 23 22 23 23 23 23 25 24 23 22 22 22 24 25 24 22 20 19 20 19 18 18 18 17 18 18 16 16 15 14 14 14 13 14 13 14 15 15 13 11 10 11 11 11 11 11 11 10 10
18 18 19 18 18 17 16 15 13 13 13 15 17 19 21 23 26 27 26 23 21 21 24 26 25 25 26 25 28 29 28 28 29 29 27 24 23 23 23 24 24 25 25 24 22 21 20 20 21 21 22 22 21 20 20 19 18 19 19 18 19 18 17 16 14 14 15 14 14 14 14 15 16 15 13 12 11 12 12 11 11 11 11 11 11
18 19 19 19 19 18 16 15 15 16 17 18 19 20 22 23 25 27 26 26 25 24 25 26 26 27 27 27 28 28 27 27 29 28 26 25 24 24 24 24 24 25 24 23 21 19 17 18 18 19 21 23 22 20 19 19 19 19 18 18 19 18 18 16 14 15 15 15 15 15 15 16 16 15 14 12 12 12 12 12 12 12 12 12 12
19 19 19 20 20 18 17 17 18 19 20 21 21 22 23 24 25 26 27 27 28 27 26 26 27 27 25 26 28 27 27 28 29 28 25 25 24 23 23 23 24 25 24 24 23 21 20 20 22 23 23 23 22 20 20 20 19 19 19 19 19 18 17 15 15 16 16 16 16 16 16 16 16 15 14 13 13 13 12 12 12 12 12 13 13
18 18 19 19 19 19 19 19 20 21 22 22 23 24 24 25 26 26 27 28 28 28 27 27 27 25 23 26 29 28 28 29 29 27 25 24 23 23 23 23 23 24 24 25 24 23 23 24 24 24 24 23 21 21 21 20 19 19 20 19 19 18 17 15 16 17 17 17 17 16 16 16 16 15 14 14 13 13 13 13 12 12 13 13 14
18 18 19 19 19 19 20 21 21 22 23 24 25 25 24 25 27 27 27 27 28 28 27 26 26 24 23 26 28 27 28 28 27 26 25 24 23 23 23 22 23 24 25 25 25 25 25 25 24 25 27 27 24 22 22 21 20 20 20 20 19 18 17 16 18 18 18 18 18 17 16 16 16 16 15 14 14 14 14 14 13 13 13 14 14
Wind_Direction
285 284 284 291 296 301 305 310 312 313 317 321 323 324 326 330 333 335 335 333 332 331 332 333 337 342 345 348 350 352 354 355 355 355 356 358 357 354 351 348 347 348 348 348 350 352 353 353 353 353 354 353 353 353 353 352 351 351 352 354 360 8 17 19 19 22 24 33 51 70 70 63 68 81 75 40 35 34 37 42 48 48 43 43 40
280 282 287 294 298 302 305 307 308 310 315 319 320 320 322 327 331 333 332 330 329 329 330 332 338 342 345 348 349 351 354 355 356 356 359 1 0 357 354 352 351 353 353 352 354 355 355 355 355 355 356 356 355 355 358 359 358 358 0 1 4 10 21 26 26 27 32 39 52 69 74 75 78 86 72 19 40 41 35 33 41 38 32 39 40
277 283 290 295 299 302 303 305 306 308 312 314 315 316 319 324 328 330 328 326 326 327 328 331 338 342 344 346 348 349 352 355 357 357 359 1 360 358 356 354 354 354 354 353 355 357 357 357 356 357 358 358 357 359 3 6 7 8 8 9 8 11 17 24 27 30 34 41 47 59 66 71 66 39 12 14 32 40 29 22 27 22 20 30 34
276 284 290 295 297 299 301 302 304 305 308 310 311 312 316 320 324 325 322 322 323 325 326 330 337 341 342 342 345 348 351 354 356 355 358 359 359 359 358 356 355 355 354 354 355 357 358 358 358 359 0 0 1 4 7 11 14 14 13 12 11 12 15 17 22 27 31 37 43 52 65 75 69 40 10 18 30 30 21 11 8 8 14 21 25
276 283 288 292 294 298 299 300 301 301 303 305 307 309 311 316 319 319 317 317 320 322 324 329 334 336 337 338 342 346 349 352 354 355 357 358 358 360 359 358 356 355 354 355 355 355 358 360 359 2 3 3 5 8 12 15 16 16 14 12 10 10 11 14 19 25 29 36 47 56 68 79 74 52 20 21 23 19 11 357 349 352 3 12 16
277 283 288 292 296 299 299 299 298 298 300 302 303 304 307 311 313 314 312 313 317 319 321 326 329 330 331 333 337 344 347 350 352 355 357 358 358 0 0 358 356 354 354 356 355 355 357 360 2 5 6 6 8 11 15 16 16 15 13 10 7 5 4 9 16 24 31 38 50 60 65 69 62 36 16 7 1 356 350 346 342 342 351 3 5
277 284 290 295 298 299 298 298 297 296 296 296 297 298 301 303 306 309 308 309 312 314 318 322 322 322 324 327 333 341 345 347 351 354 357 359 360 1 360 355 354 353 354 356 354 354 357 359 3 8 9 9 8 10 13 15 14 12 10 7 1 356 355 357 5 14 21 28 35 46 52 52 44 25 9 352 341 341 346 345 343 341 345 351 352
279 285 288 291 292 293 294 295 295 293 290 290 290 292 294 297 300 303 304 305 307 308 311 315 315 316 318 321 328 338 343 346 351 354 356 359 1 1 358 353 350 351 353 354 353 353 354 357 4 9 10 9 8 6 8 11 12 9 6 4 357 350 346 346 351 360 4 9 15 19 21 19 9 358 353 346 340 340 344 341 339 337 338 338 337
281 284 285 284 283 285 288 291 291 288 286 285 285 288 291 294 296 298 299 299 300 301 303 306 308 310 313 316 325 335 340 344 349 353 355 357 360 360 356 350 346 348 351 350 350 350 352 354 3 10 10 10 6 1 0 5 8 7 3 359 356 351 345 343 345 349 353 355 357 358 355 356 351 345 345 341 339 339 338 335 332 331 330 329 328
282 282 282 279 279 282 286 288 288 285 284 285 286 288 290 292 293 294 294 293 293 294 296 300 303 305 308 312 321 330 335 340 346 351 353 355 356 357 354 347 342 344 348 347 346 348 349 351 360 8 10 12 6 357 353 357 3 4 360 354 353 353 350 348 345 344 346 347 345 340 335 337 340 340 341 337 335 336 337 334 330 327 326 325 323
282 279 279 279 281 285 288 290 290 288 288 289 290 291 290 289 290 290 288 287 287 287 290 294 297 299 304 309 316 323 329 334 340 346 351 352 352 353 350 342 337 341 346 345 343 344 347 349 356 5 9 11 8 358 349 347 354 359 356 353 354 352 349 347 344 341 341 341 335 327 320 320 323 331 336 334 334 334 333 332 329 326 324 324 322
278 277 279 282 287 291 293 294 294 292 291 292 292 291 289 286 285 285 284 283 281 282 284 287 290 294 300 305 310 316 322 329 335 340 347 350 349 349 345 337 331 335 344 344 342 342 345 348 352 2 6 7 7 1 352 342 341 348 351 351 353 353 351 348 343 339 337 336 329 319 310 306 305 311 320 325 327 326 326 328 327 325 324 322 320
275 278 281 285 292 296 299 299 298 295 293 292 291 290 288 284 282 281 281 278 276 276 278 280 283 290 296 299 304 309 315 324 331 335 342 347 347 346 342 334 326 327 340 343 339 339 342 347 349 357 3 3 3 2 356 345 332 330 335 339 344 348 349 347 344 340 336 332 327 319 310 304 302 303 307 313 314 318 322 324 325 323 321 318 317
277 280 284 289 295 299 302 301 299 296 295 294 293 292 290 286 283 281 279 276 273 272 273 274 277 286 292 295 299 304 311 320 326 330 336 342 343 342 339 332 323 319 331 340 334 335 339 345 348 353 359 358 359 2 358 348 334 321 321 326 331 338 342 340 338 338 336 331 327 322 317 312 310 309 308 311 311 313 316 317 318 317 315 314 312
280 281 285 290 296 300 302 301 301 300 299 300 300 297 293 290 286 282 279 275 271 269 269 270 274 282 287 291 295 300 306 316 323 325 330 335 337 337 335 329 320 313 318 332 330 330 336 343 346 349 353 353 356 359 358 351 338 326 320 318 322 329 333 332 329 330 331 329 326 323 322 320 316 314 313 312 311 311 310 310 310 309 308 308 307
279 280 284 290 296 300 300 300 302 303 303 303 301 297 292 288 284 281 278 273 268 266 268 269 272 278 283 286 292 297 301 311 319 321 324 329 332 333 330 325 316 309 309 320 325 325 332 340 343 345 348 348 353 356 354 350 339 327 318 313 313 318 324 325 323 322 323 323 322 321 320 320 317 315 315 313 313 312 310 308 306 304 303 303 302
278 278 282 289 294 296 297 299 303 305 305 303 298 293 288 283 280 277 273 268 264 264 266 268 270 273 277 282 288 292 296 306 316 317 320 324 327 329 327 320 310 304 303 308 318 322 328 336 340 341 343 344 350 352 349 344 335 326 316 309 306 307 312 317 318 316 315 316 315 316 317 317 317 316 316 315 314 312 310 307 305 303 303 303 302
277 276 280 285 287 290 293 298 303 304 303 299 292 287 283 279 276 273 269 265 263 263 264 266 268 271 274 279 284 288 293 303 313 315 318 321 323 325 324 315 304 300 299 301 309 317 324 330 334 334 336 340 345 348 343 336 328 322 316 309 305 302 304 310 312 311 311 313 311 311 313 315 316 315 314 313 311 309 307 305 304 304 303 303 302
276 277 279 280 282 284 287 292 295 295 293 290 285 282 279 276 272 267 264 262 261 261 262 264 266 270 273 278 282 285 292 301 311 315 316 317 319 321 320 312 299 294 294 296 302 311 320 324 325 325 328 333 340 343 336 327 320 317 315 310 306 303 304 308 310 311 311 312 310 309 311 314 315 314 313 311 311 309 306 303 301 302 301 301 300
273 276 277 277 277 278 280 281 281 283 284 283 280 278 274 271 267 264 262 259 257 256 258 262 265 269 273 277 281 285 292 300 309 314 313 313 315 316 316 307 293 288 288 289 295 303 312 317 316 315 320 326 332 336 329 317 311 311 312 309 305 304 305 308 309 309 311 312 311 311 314 317 318 316 313 311 312 311 308 305 302 300 299 298 298
271 274 274 273 273 275 277 271 270 279 281 281 277 272 268 265 262 260 260 258 254 254 255 260 266 270 274 276 280 286 292 299 306 310 310 310 311 311 311 302 287 279 282 283 288 294 304 310 309 306 309 316 322 327 321 309 303 305 308 308 305 304 305 307 307 307 309 312 313 314 317 318 318 314 310 308 308 308 306 305 304 301 299 297 295
275 276 273 269 269 272 273 267 264 275 284 281 269 262 261 256 256 258 258 257 255 254 256 262 268 272 275 277 280 286 291 298 304 306 307 307 307 306 306 299 284 276 276 277 282 287 296 304 301 298 298 303 312 316 311 301 297 298 302 305 304 304 304 303 304 306 308 310 312 315 318 318 315 312 308 306 305 304 303 301 301 299 297 295 293
278 276 274 277 280 278 274 269 268 281 289 279 265 262 261 252 253 256 255 255 255 257 261 265 269 272 275 278 281 286 291 298 302 303 304 303 303 302 301 294 281 277 273 271 276 280 288 297 294 289 288 292 300 304 299 293 290 290 294 299 301 302 301 297 297 303 304 302 305 308 312 313 312 311 309 308 306 304 301 299 297 295 293 292 290
278 280 285 293 299 298 291 284 285 296 294 277 266 265 260 257 256 254 251 252 255 259 263 265 268 271 275 278 281 286 291 297 300 302 303 301 300 299 296 288 277 269 264 266 269 272 281 289 288 282 281 285 290 293 288 285 283 282 284 290 296 298 295 292 292 297 301 301 303 306 308 308 308 309 309 309 307 305 303 300 297 294 292 290 288
276 282 291 296 302 309 312 309 302 302 294 272 261 262 266 268 261 253 250 250 254 258 261 264 267 269 273 276 281 286 290 294 298 301 302 300 298 295 289 283 279 266 251 259 264 265 275 280 281 278 277 280 283 285 281 280 280 277 277 284 292 293 289 286 288 295 301 306 309 311 312 310 309 308 308 306 305 304 304 303 300 297 293 290 287
271 277 285 290 296 307 315 316 308 301 291 266 259 273 284 277 262 256 252 251 255 257 259 261 264 267 270 275 280 284 288 292 297 301 300 298 295 290 281 279 287 274 247 250 259 261 269 273 275 275 274 275 276 277 276 277 277 274 274 282 290 287 282 281 284 294 302 307 310 312 314 314 311 309 308 306 305 305 304 303 302 300 297 293 288
272 276 281 286 295 304 308 313 314 304 282 264 271 282 288 279 265 259 253 253 255 256 258 259 261 266 269 273 277 281 285 290 296 299 298 297 292 279 273 278 289 277 245 242 253 258 265 269 272 272 270 270 271 271 270 272 272 271 272 280 287 281 277 279 285 296 304 306 306 309 311 312 310 309 308 307 307 308 307 307 305 303 301 298 292
278 280 283 287 293 301 305 313 327 320 286 271 278 278 281 281 270 262 259 257 255 255 256 257 259 264 269 273 276 279 283 288 293 296 295 294 286 269 268 275 279 273 254 248 250 254 262 267 269 270 268 266 266 266 265 265 265 267 270 276 280 274 273 278 287 299 305 306 305 308 310 311 309 308 309 308 309 311 312 312 310 308 305 302 297
278 281 285 290 296 302 306 309 323 335 313 287 282 274 273 276 272 271 269 264 259 257 256 257 260 264 270 274 277 279 282 285 290 292 292 290 280 267 266 269 269 268 262 255 249 251 259 263 268 269 266 263 263 263 262 260 261 264 267 272 273 269 271 277 286 298 304 305 305 309 313 312 311 311 311 311 313 314 316 318 317 313 310 307 302
275 281 286 293 301 306 309 308 307 319 320 307 294 279 270 267 269 274 272 267 263 260 259 258 259 263 267 271 274 276 277 281 286 288 288 284 276 266 263 263 265 266 263 257 250 250 255 260 265 266 263 261 261 261 260 259 259 262 266 270 270 268 271 277 284 294 303 305 305 309 313 313 313 315 316 316 318 319 320 323 322 319 314 311 306
277 282 287 293 299 303 307 308 303 302 303 300 295 287 276 267 266 269 269 268 265 262 262 260 259 261 263 266 268 270 272 277 282 284 282 278 273 268 264 263 265 265 263 259 252 250 253 257 261 261 259 259 260 259 258 257 255 259 264 269 268 267 272 279 286 295 303 305 305 308 311 312 314 318 320 320 320 322 324 324 324 322 318 315 311
280 284 289 294 297 301 303 302 299 296 295 292 289 291 286 276 273 275 273 273 271 266 266 267 265 266 267 268 268 268 271 274 277 277 275 274 274 273 270 268 268 267 265 260 254 250 251 255 256 256 256 258 258 255 255 254 252 253 259 264 264 264 270 281 289 297 303 305 305 306 308 310 314 319 322 322 323 324 327 327 326 324 321 319 316
283 286 291 297 301 304 303 302 298 295 293 290 289 292 289 282 281 280 276 275 273 267 265 267 269 270 271 270 269 269 270 270 271 269 268 271 274 276 275 274 273 271 267 261 256 251 249 252 252 253 254 256 255 251 252 252 249 249 251 256 259 260 268 280 289 295 303 305 304 303 305 309 314 319 321 322 324 326 330 332 332 329 324 322 319
285 289 293 297 303 307 305 303 301 296 292 289 290 292 289 285 282 278 274 270 268 265 263 266 270 272 271 269 267 266 265 265 265 263 262 265 270 275 278 278 276 275 270 263 257 250 247 248 249 250 251 253 253 249 249 250 247 244 244 249 253 257 265 276 285 294 303 304 301 299 301 308 313 318 320 322 324 327 332 334 333 331 326 323 322
287 291 294 297 301 304 305 305 303 299 297 296 296 295 289 287 286 282 276 270 268 267 265 267 271 273 271 269 266 263 261 261 261 259 258 260 264 269 274 275 275 275 272 265 256 246 244 245 245 246 248 250 250 247 246 247 244 239 239 243 249 255 263 273 282 292 299 298 295 294 298 307 314 318 321 323 326 331 333 331 330 328 325 323 323
289 292 295 298 298 298 301 303 303 303 304 302 299 293 287 285 286 283 278 274 271 269 268 270 273 274 273 270 267 263 258 257 259 258 257 259 262 266 269 271 271 272 269 262 252 243 242 244 243 244 246 247 247 244 243 244 242 238 237 241 248 256 263 269 277 286 293 293 292 291 296 305 313 318 322 324 329 334 333 329 329 329 324 320 321
290 294 300 301 297 298 300 300 299 299 300 298 293 286 280 277 276 274 272 271 270 269 271 274 278 280 276 271 270 265 257 254 257 259 259 260 262 265 267 268 267 265 262 255 248 244 244 243 243 244 245 244 241 239 240 242 241 238 238 243 250 257 261 265 272 281 287 290 291 289 294 304 311 316 321 325 328 331 330 328 330 330 325 319 319
292 297 303 304 302 302 300 295 293 293 294 294 291 285 279 274 270 268 267 268 269 270 271 278 286 289 281 272 270 266 255 251 255 259 260 262 263 262 263 265 265 261 257 253 248 248 249 247 247 248 248 242 235 235 239 242 241 240 241 245 250 254 256 260 268 278 283 287 289 288 292 301 308 313 319 323 324 326 328 329 331 330 326 321 318
294 300 304 304 302 299 296 291 289 290 292 293 292 289 284 278 272 267 263 265 268 270 272 278 287 294 286 269 264 262 254 250 254 259 261 262 261 258 257 260 261 259 258 254 251 252 252 251 250 250 251 241 231 234 240 242 241 240 240 243 247 248 250 257 267 275 281 286 288 287 290 297 305 311 317 322 323 326 330 331 331 330 328 321 314
295 300 300 298 294 293 292 289 287 286 286 287 287 287 286 283 278 269 263 264 266 268 271 275 282 294 289 265 255 255 252 251 255 260 262 261 257 252 251 252 255 258 257 253 252 254 252 250 249 248 245 235 229 235 239 239 239 239 240 242 242 242 245 255 265 273 279 284 286 286 288 294 302 309 315 323 325 327 332 333 329 324 325 320 309
294 295 293 291 289 288 286 284 282 279 278 279 281 283 283 284 281 274 268 266 267 269 272 277 280 289 288 266 253 251 249 251 254 258 261 262 257 248 246 249 253 256 256 253 252 252 250 249 247 243 237 230 230 236 237 237 239 242 245 245 241 240 245 254 263 271 277 281 284 284 286 291 298 305 313 321 326 327 329 330 325 319 322 324 308
287 287 287 286 285 285 283 282 282 280 278 278 278 281 282 282 281 277 273 269 270 272 276 281 280 282 282 267 256 252 249 248 249 253 259 262 258 248 246 251 253 253 252 252 251 250 248 248 245 239 234 232 233 235 238 241 242 244 249 248 243 244 247 254 262 270 276 280 282 283 285 288 294 300 307 316 323 324 319 316 315 313 317 325 313
280 282 284 286 286 287 287 288 290 290 288 286 282 281 281 282 281 279 276 272 272 273 276 278 276 275 273 264 255 250 248 245 244 249 256 258 254 248 248 253 254 250 247 248 248 249 249 246 242 238 236 236 236 236 239 243 242 241 244 244 244 246 249 254 261 268 275 278 281 284 284 285 290 294 300 309 317 317 307 301 303 304 306 311 302
279 282 283 285 287 288 289 291 295 296 294 291 287 282 280 279 280 280 276 273 274 273 274 274 272 269 267 263 253 245 243 242 241 248 254 253 250 249 250 254 253 247 244 245 246 247 249 246 242 238 237 238 238 238 239 241 241 239 239 240 243 246 250 256 259 266 272 276 281 283 277 279 286 290 294 302 309 309 301 293 294 294 291 292 289
282 284 284 285 286 286 288 292 295 295 292 288 285 282 280 278 278 278 275 272 272 271 269 270 269 267 265 262 253 247 244 241 242 247 249 249 249 249 249 251 249 244 242 243 244 247 248 244 242 240 238 240 241 239 237 237 239 240 239 240 243 244 248 256 262 267 270 273 278 279 274 276 283 286 289 296 302 304 300 293 290 288 287 285 284
285 286 285 284 285 287 292 297 298 298 296 290 286 284 279 276 276 276 272 267 265 265 265 266 265 265 265 260 254 251 246 241 243 244 243 247 248 246 247 248 245 239 238 239 241 246 247 244 244 241 238 241 244 242 238 238 239 238 238 240 244 245 246 252 261 266 269 271 273 276 276 277 280 282 286 292 297 299 299 295 290 286 283 281 281
284 284 285 286 289 293 298 300 295 295 299 298 294 288 280 274 272 272 270 266 261 259 261 263 263 263 263 258 253 251 246 240 242 241 241 247 248 245 247 248 244 239 236 236 237 241 243 242 238 233 234 240 244 243 241 241 241 240 239 240 244 248 249 252 258 263 266 270 272 274 274 274 276 281 285 289 293 297 299 297 292 286 279 276 276
280 281 285 289 292 297 300 296 290 290 295 298 295 288 281 275 271 269 268 266 261 257 256 260 261 260 261 257 252 249 244 240 241 241 243 247 248 246 247 246 241 237 236 234 236 238 238 237 234 234 242 247 246 245 243 242 243 244 243 242 244 248 251 255 259 261 265 268 271 273 272 271 274 278 283 287 291 296 299 298 294 289 282 277 275
277 281 286 291 294 298 299 297 294 292 294 295 292 287 282 278 273 270 268 266 263 258 254 256 258 260 263 262 253 244 239 237 237 239 246 248 246 245 245 242 236 234 233 232 233 237 239 242 243 245 247 246 247 248 246 243 243 244 244 244 245 249 253 257 259 260 264 267 269 270 270 271 272 276 280 284 288 293 296 297 295 291 286 281 276
280 286 290 293 297 298 299 298 297 294 293 292 290 287 284 280 274 269 267 265 265 261 256 256 258 262 266 262 253 243 236 236 237 240 246 248 245 243 240 238 236 234 233 232 233 237 241 244 246 245 241 241 247 250 247 245 244 245 245 246 248 251 254 256 258 260 264 267 268 268 269 270 272 275 279 282 286 291 293 294 294 290 285 280 276
285 290 292 294 296 296 296 296 294 293 292 290 289 286 283 279 273 268 266 265 267 267 264 261 260 261 262 258 253 245 237 235 240 244 247 247 245 243 240 238 238 237 236 235 236 239 242 244 246 244 239 240 246 249 247 246 245 246 247 249 250 252 254 256 258 262 264 265 266 266 265 266 269 273 278 283 286 289 291 294 294 292 286 281 277
Height
5887 5887 5886 5886 5886 5885 5885 5884 5884 5883 5882 5882 5882 5881 5880 5880 5880 5880 5879 5878 5878 5877 5877 5876 5875 5874 5874 5873 5872 5871 5870 5869 5867 5866 5865 5864 5863 5862 5861 5861 5860 5859 5858 5857 5856 5855 5855 5854 5853 5853 5852 5851 5850 5849 5848 5848 5847 5847 5846 5846 5845 5845 5844 5844 5844 5844 5843 5843 5843 5843 5842 5843 5843 5843 5843 5843 5843 5843 5843 5842 5842 5842 5842 5842 5842
5886 5886 5885 5885 5885 5884 5884 5883 5883 5882 5882 5881 5881 5880 5879 5879 5879 5879 5878 5878 5877 5877 5876 5875 5875 5874 5873 5872 5871 5870 5869 5868 5867 5866 5865 5864 5863 5862 5861 5860 5859 5858 5857 5857 5856 5855 5854 5854 5853 5852 5851 5851 5850 5849 5849 5848 5847 5847 5846 5845 5845 5845 5844 5844 5844 5844 5843 5843 5843 5843 5843 5843 5843 5843 5843 5843 5843 5843 5842 5842 5842 5842 5842 5842 5842
5885 5885 5884 5884 5884 5883 5883 5882 5882 5881 5881 5880 5880 5879 5879 5878 5878 5878 5877 5877 5876 5876 5875 5875 5874 5874 5873 5872 5871 5870 5869 5868 5866 5865 5864 5864 5863 5862 5860 5859 5858 5858 5857 5856 5856 5855 5854 5853 5853 5852 5851 5850 5850 5849 5849 5848 5847 5846 5846 5846 5845 5845 5844 5844 5844 5844 5843 5843 5843 5843 5843 5843 5843 5843 5843 5843 5842 5842 5842 5842 5842 5842 5842 5842 5842
5884 5884 5884 5883 5883 5882 5882 5881 5881 5880 5880 5879 5879 5878 5878 5878 5877 5877 5877 5876 5876 5876 5875 5874 5874 5873 5872 5871 5870 5869 5868 5867 5866 5865 5864 5863 5862 5861 5860 5859 5858 5858 5857 5856 5855 5855 5854 5853 5852 5852 5851 5850 5850 5849 5848 5848 5847 5846 5846 5846 5845 5845 5845 5844 5844 5844 5843 5843 5843 5842 5842 5843 5843 5843 5843 5843 5842 5842 5842 5842 5842 5842 5842 5842 5842
5884 5883 5883 5882 5882 5881 5881 5880 5880 5879 5879 5878 5878 5877 5877 5877 5877 5877 5876 5876 5876 5875 5875 5874 5873 5872 5872 5871 5870 5869 5868 5867 5867 5865 5864 5863 5862 5861 5860 5859 5858 5858 5857 5856 5855 5854 5854 5853 5852 5851 5851 5850 5850 5849 5848 5848 5847 5847 5846 5846 5846 5846 5845 5845 5844 5844 5843 5843 5843 5843 5843 5843 5843 5843 5843 5842 5842 5842 5842 5842 5842 5842 5842 5842 5842
5882 5882 5882 5881 5880 5880 5879 5879 5879 5878 5878 5877 5877 5877 5876 5876 5876 5876 5876 5875 5875 5875 5874 5874 5873 5872 5871 5871 5870 5869 5868 5868 5867 5865 5864 5863 5862 5861 5860 5859 5858 5858 5857 5856 5855 5854 5853 5852 5852 5852 5851 5850 5850 5849 5848 5848 5847 5847 5846 5846 5846 5846 5845 5845 5845 5844 5844 5843 5843 5843 5843 5843 5843 5842 5842 5842 5842 5842 5842 5842 5842 5842 5842 5842 5842
5881 5881 5880 5880 5879 5879 5878 5878 5878 5877 5877 5877 5876 5876 5876 5876 5876 5875 5875 5875 5875 5875 5874 5873 5873 5872 5871 5870 5870 5869 5869 5868 5867 5865 5864 5863 5862 5861 5860 5860 5859 5858 5857 5856 5855 5854 5853 5852 5852 5852 5851 5851 5850 5849 5849 5848 5847 5847 5846 5846 5846 5845 5845 5845 5845 5844 5844 5843 5843 5843 5843 5843 5842 5842 5842 5842 5842 5842 5842 5842 5842 5842 5842 5842 5842
5880 5879 5879 5878 5878 5878 5877 5877 5877 5876 5876 5876 5875 5875 5875 5875 5875 5875 5875 5875 5875 5874 5874 5873 5873 5872 5871 5870 5870 5869 5869 5868 5866 5865 5864 5863 5862 5861 5860 5860 5859 5858 5857 5856 5855 5854 5853 5853 5852 5852 5851 5851 5850 5849 5849 5848 5848 5848 5847 5846 5846 5845 5845 5845 5845 5844 5844 5843 5843 5843 5843 5843 5842 5842 5842 5842 5842 5842 5842 5842 5842 5842 5842 5841 5841
5879 5878 5878 5878 5877 5877 5877 5876 5876 5875 5875 5875 5875 5875 5875 5875 5875 5875 5875 5875 5874 5874 5874 5873 5872 5871 5870 5869 5869 5869 5868 5868 5866 5865 5864 5863 5861 5861 5860 5859 5859 5858 5857 5856 5855 5854 5853 5853 5852 5852 5851 5851 5850 5849 5849 5848 5848 5848 5847 5847 5846 5846 5846 5845 5845 5844 5844 5843 5843 5843 5843 5843 5842 5842 5842 5842 5842 5842 5842 5842 5842 5841 5841 5841 5841
5877 5877 5877 5877 5877 5876 5876 5876 5875 5875 5874 5874 5874 5875 5875 5875 5875 5875 5874 5874 5874 5873 5873 5873 5872 5870 5869 5869 5869 5869 5868 5867 5866 5865 5864 5863 5861 5860 5860 5859 5858 5858 5857 5856 5855 5854 5854 5853 5853 5852 5851 5851 5850 5849 5849 5849 5848 5848 5848 5847 5847 5846 5846 5845 5845 5844 5844 5843 5843 5843 5843 5843 5842 5842 5842 5842 5842 5842 5842 5842 5842 5841 5841 5841 5841
5876 5876 5876 5876 5876 5876 5876 5875 5875 5875 5874 5874 5874 5874 5874 5874 5874 5874 5873 5873 5873 5872 5872 5872 5871 5870 5869 5868 5868 5868 5868 5867 5866 5865 5864 5863 5861 5860 5859 5859 5858 5858 5857 5856 5855 5854 5854 5853 5853 5852 5851 5850 5850 5849 5849 5849 5849 5848 5848 5847 5847 5846 5846 5845 5845 5844 5844 5844 5843 5843 5843 5843 5843 5842 5842 5842 5842 5842 5842 5842 5842 5841 5841 5841 5841
5875 5875 5875 5875 5876 5876 5875 5875 5875 5874 5874 5874 5873 5873 5873 5872 5872 5872 5872 5872 5871 5871 5871 5870 5870 5869 5868 5867 5868 5868 5868 5867 5866 5865 5864 5862 5861 5860 5859 5858 5857 5857 5857 5856 5855 5854 5853 5853 5853 5852 5851 5850 5850 5849 5849 5849 5849 5848 5848 5847 5847 5846 5846 5846 5845 5845 5844 5844 5843 5843 5843 5843 5843 5842 5842 5842 5842 5842 5842 5842 5841 5841 5841 5841 5841
5874 5874 5875 5875 5875 5875 5875 5874 5874 5873 5873 5872 5872 5872 5871 5871 5870 5870 5870 5870 5870 5869 5869 5869 5868 5868 5867 5866 5866 5867 5867 5867 5865 5864 5863 5862 5861 5860 5859 5858 5856 5856 5857 5856 5855 5854 5853 5853 5853 5852 5851 5850 5849 5849 5849 5849 5848 5848 5848 5847 5847 5847 5846 5846 5846 5845 5845 5844 5844 5843 5843 5843 5843 5842 5842 5842 5842 5842 5841 5841 5841 5841 5841 5841 5840
5874 5874 5874 5874 5874 5874 5873 5873 5872 5872 5871 5871 5870 5870 5870 5869 5869 5869 5869 5869 5869 5868 5868 5867 5867 5867 5866 5865 5865 5865 5866 5866 5865 5864 5863 5862 5861 5860 5858 5857 5856 5855 5857 5856 5855 5854 5853 5853 5853 5852 5851 5850 5849 5849 5849 5848 5848 5848 5847 5847 5847 5846 5846 5846 5846 5845 5845 5845 5844 5844 5843 5843 5843 5842 5842 5842 5842 5841 5841 5841 5841 5841 5841 5840 5840
5873 5873 5873 5873 5873 5872 5872 5871 5871 5870 5870 5869 5869 5869 5868 5868 5868 5868 5868 5868 5867 5867 5867 5866 5866 5866 5865 5864 5864 5864 5865 5865 5865 5863 5862 5862 5861 5860 5858 5857 5855 5854 5856 5857 5855 5854 5853 5853 5853 5852 5851 5850 5849 5849 5849 5848 5848 5847 5847 5847 5847 5846 5846 5846 5845 5845 5845 5844 5844 5844 5843 5843 5843 5842 5842 5842 5841 5841 5841 5841 5840 5840 5840 5840 5840
5871 5872 5872 5872 5871 5871 5870 5869 5869 5868 5868 5868 5867 5867 5867 5867 5867 5866 5866 5866 5866 5866 5865 5865 5865 5865 5864 5863 5862 5862 5863 5864 5864 5863 5862 5861 5861 5860 5858 5856 5855 5853 5854 5856 5856 5854 5853 5853 5852 5852 5851 5850 5849 5849 5848 5848 5847 5847 5847 5847 5847 5846 5846 5845 5845 5845 5844 5844 5844 5844 5843 5843 5843 5842 5842 5841 5841 5841 5840 5840 5840 5840 5839 5839 5839
5870 5870 5870 5870 5869 5868 5867 5867 5867 5866 5866 5866 5866 5866 5865 5865 5865 5865 5865 5864 5864 5864 5863 5863 5863 5863 5863 5862 5861 5861 5861 5863 5864 5863 5861 5861 5861 5860 5858 5856 5855 5853 5853 5855 5855 5854 5853 5852 5852 5851 5850 5849 5849 5848 5848 5848 5847 5846 5846 5846 5846 5846 5846 5845 5845 5845 5844 5844 5843 5843 5843 5842 5842 5842 5842 5841 5841 5840 5840 5840 5839 5839 5839 5838 5838
5868 5868 5868 5867 5867 5866 5865 5865 5865 5864 5864 5864 5864 5864 5864 5863 5863 5863 5863 5863 5863 5863 5862 5862 5862 5862 5861 5861 5860 5860 5860 5862 5863 5862 5861 5860 5860 5859 5858 5856 5854 5853 5852 5853 5854 5854 5853 5852 5851 5850 5850 5849 5849 5848 5848 5847 5847 5846 5846 5846 5846 5845 5845 5845 5845 5844 5844 5843 5843 5843 5842 5842 5842 5841 5841 5841 5840 5840 5839 5839 5838 5838 5838 5838 5837
5866 5865 5864 5864 5863 5863 5862 5862 5861 5861 5861 5861 5862 5862 5862 5862 5861 5861 5861 5861 5861 5861 5861 5861 5861 5861 5860 5860 5859 5859 5859 5860 5862 5862 5861 5860 5859 5859 5858 5856 5854 5853 5852 5851 5853 5853 5853 5852 5851 5850 5849 5849 5848 5848 5847 5847 5847 5846 5846 5845 5845 5845 5845 5844 5844 5843 5843 5843 5842 5842 5842 5842 5841 5841 5841 5841 5840 5839 5839 5838 5838 5838 5837 5837 5837
5863 5862 5861 5860 5860 5859 5858 5857 5857 5857 5858 5858 5859 5859 5859 5859 5859 5859 5859 5859 5860 5860 5860 5860 5860 5860 5859 5859 5858 5858 5858 5859 5860 5860 5860 5859 5858 5858 5857 5855 5853 5852 5852 5851 5851 5852 5852 5851 5850 5849 5849 5848 5848 5847 5847 5847 5846 5846 5845 5845 5845 5845 5844 5844 5843 5843 5842 5842 5842 5842 5842 5841 5841 5841 5840 5840 5840 5839 5838 5838 5837 5837 5837 5836 5836
5861 5860 5858 5857 5856 5855 5854 5853 5853 5854 5855 5855 5855 5855 5856 5856 5856 5857 5858 5858 5858 5858 5858 5858 5859 5859 5859 5858 5858 5857 5857 5857 5858 5859 5858 5857 5857 5857 5856 5855 5852 5852 5851 5851 5850 5850 5851 5850 5849 5849 5848 5847 5847 5847 5847 5846 5846 5846 5845 5845 5845 5844 5844 5843 5843 5842 5842 5841 5841 5841 5841 5841 5840 5840 5840 5839 5839 5838 5838 5837 5837 5836 5836 5835 5835
5860 5857 5855 5853 5852 5851 5850 5850 5849 5850 5852 5852 5851 5852 5852 5852 5853 5854 5855 5856 5856 5856 5856 5857 5857 5858 5858 5857 5857 5856 5856 5856 5856 5857 5856 5856 5855 5855 5855 5854 5852 5851 5851 5850 5850 5850 5849 5849 5848 5848 5848 5847 5846 5846 5846 5846 5846 5845 5845 5844 5844 5844 5844 5843 5843 5842 5841 5841 5841 5841 5840 5840 5840 5839 5839 5838 5838 5837 5837 5836 5836 5835 5835 5834 5834
5858 5855 5853 5853 5852 5852 5851 5849 5849 5849 5851 5850 5849 5850 5849 5849 5850 5852 5853 5853 5854 5854 5855 5856 5856 5856 5856 5856 5855 5855 5854 5854 5854 5855 5854 5854 5854 5853 5853 5853 5851 5850 5849 5849 5850 5849 5848 5848 5847 5847 5847 5846 5846 5846 5845 5845 5845 5845 5845 5844 5844 5844 5844 5843 5842 5842 5841 5841 5840 5840 5840 5839 5839 5838 5838 5837 5837 5836 5836 5835 5835 5834 5834 5833 5833
5856 5854 5853 5854 5854 5855 5855 5853 5853 5852 5851 5850 5850 5849 5849 5848 5849 5850 5851 5851 5851 5852 5854 5854 5854 5854 5855 5855 5854 5853 5853 5853 5853 5852 5852 5852 5852 5852 5851 5851 5850 5849 5848 5848 5848 5848 5848 5847 5846 5846 5846 5845 5845 5845 5845 5845 5845 5845 5844 5844 5844 5844 5843 5843 5842 5841 5841 5840 5840 5840 5839 5839 5838 5838 5837 5836 5836 5835 5834 5834 5833 5833 5832 5832 5832
5855 5854 5854 5853 5854 5856 5856 5855 5854 5853 5851 5852 5851 5849 5849 5849 5849 5849 5849 5849 5850 5851 5852 5852 5852 5853 5853 5853 5852 5852 5851 5851 5851 5851 5851 5850 5850 5850 5849 5849 5848 5848 5847 5847 5847 5847 5847 5846 5845 5844 5845 5844 5844 5844 5843 5844 5844 5844 5844 5844 5844 5843 5843 5842 5842 5841 5840 5840 5840 5839 5839 5838 5838 5837 5836 5835 5835 5834 5833 5832 5832 5832 5831 5831 5831
5854 5854 5853 5852 5852 5853 5853 5851 5850 5850 5849 5850 5850 5849 5849 5849 5849 5849 5848 5848 5849 5849 5850 5850 5850 5850 5851 5851 5851 5850 5849 5849 5849 5849 5848 5848 5848 5848 5847 5847 5846 5845 5845 5845 5845 5846 5845 5845 5844 5843 5843 5843 5843 5842 5842 5842 5843 5843 5843 5843 5843 5843 5842 5842 5841 5841 5840 5840 5839 5839 5838 5838 5837 5836 5836 5835 5834 5833 5832 5832 5831 5830 5830 5830 5829
5853 5853 5852 5851 5850 5850 5849 5848 5847 5847 5847 5847 5848 5847 5847 5848 5848 5847 5847 5847 5847 5847 5848 5848 5848 5848 5848 5849 5849 5848 5847 5847 5847 5846 5846 5846 5846 5846 5845 5845 5844 5844 5843 5844 5844 5844 5844 5844 5843 5842 5842 5842 5842 5842 5841 5841 5841 5842 5842 5842 5842 5842 5842 5841 5841 5840 5840 5839 5839 5838 5838 5837 5836 5836 5835 5834 5833 5832 5831 5831 5830 5829 5829 5828 5828
5851 5851 5851 5850 5848 5848 5847 5846 5845 5844 5845 5846 5846 5846 5846 5846 5846 5846 5845 5845 5845 5845 5845 5845 5846 5845 5845 5846 5846 5846 5845 5845 5845 5844 5844 5844 5844 5844 5843 5843 5843 5843 5843 5843 5843 5842 5842 5842 5842 5841 5841 5841 5841 5841 5840 5840 5840 5840 5841 5841 5841 5841 5841 5840 5840 5840 5839 5839 5838 5838 5837 5836 5836 5835 5834 5833 5832 5831 5831 5830 5829 5828 5828 5827 5827
5850 5849 5849 5848 5847 5846 5845 5844 5843 5843 5843 5844 5844 5844 5844 5844 5844 5843 5843 5843 5843 5843 5843 5843 5843 5843 5843 5843 5844 5844 5843 5843 5843 5842 5841 5842 5842 5842 5842 5841 5842 5842 5842 5842 5842 5841 5840 5840 5840 5840 5840 5839 5840 5839 5839 5839 5839 5839 5839 5840 5840 5840 5840 5839 5839 5839 5839 5838 5838 5837 5836 5836 5835 5834 5833 5832 5832 5831 5830 5829 5829 5828 5827 5826 5825
5847 5847 5847 5846 5846 5845 5844 5843 5843 5842 5842 5842 5842 5842 5842 5841 5841 5841 5840 5840 5840 5841 5841 5840 5840 5840 5840 5840 5841 5840 5840 5840 5840 5840 5839 5839 5840 5840 5840 5840 5840 5841 5841 5841 5841 5840 5839 5838 5838 5838 5838 5838 5838 5838 5838 5838 5838 5838 5838 5839 5839 5839 5838 5838 5838 5838 5838 5837 5837 5836 5836 5835 5834 5833 5832 5832 5831 5830 5829 5828 5828 5827 5826 5825 5824
5845 5845 5845 5845 5845 5843 5843 5842 5842 5841 5840 5840 5840 5840 5839 5839 5838 5838 5837 5837 5837 5838 5838 5838 5838 5837 5837 5837 5837 5837 5838 5838 5838 5837 5837 5836 5837 5838 5839 5839 5839 5839 5839 5839 5839 5838 5838 5837 5836 5836 5836 5836 5837 5837 5837 5837 5837 5837 5837 5838 5838 5837 5837 5837 5837 5837 5837 5836 5836 5836 5835 5834 5833 5833 5832 5831 5830 5829 5828 5827 5827 5826 5825 5824 5824
5843 5843 5843 5843 5843 5842 5841 5841 5840 5839 5838 5837 5837 5837 5837 5836 5836 5835 5835 5835 5836 5836 5836 5836 5836 5835 5835 5835 5835 5835 5835 5836 5835 5835 5834 5834 5835 5836 5837 5837 5837 5837 5838 5838 5837 5837 5836 5836 5835 5835 5835 5835 5836 5836 5836 5836 5836 5836 5837 5837 5836 5836 5836 5836 5836 5836 5836 5835 5835 5835 5834 5833 5833 5832 5831 5831 5830 5829 5828 5827 5826 5825 5824 5824 5823
5841 5841 5841 5841 5841 5840 5839 5838 5837 5836 5836 5835 5835 5835 5835 5835 5834 5834 5833 5833 5833 5834 5834 5833 5833 5834 5833 5833 5833 5833 5833 5833 5832 5832 5832 5832 5833 5833 5834 5835 5836 5836 5836 5836 5835 5835 5834 5834 5834 5833 5834 5834 5834 5835 5835 5835 5835 5835 5835 5835 5835 5835 5835 5835 5835 5835 5835 5834 5834 5834 5833 5833 5832 5832 5831 5830 5829 5828 5827 5826 5825 5824 5824 5823 5822
5838 5839 5839 5839 5839 5838 5837 5836 5835 5834 5834 5834 5833 5833 5833 5832 5832 5831 5830 5830 5830 5830 5830 5831 5831 5831 5831 5830 5831 5831 5831 5831 5830 5830 5830 5830 5830 5830 5831 5833 5834 5834 5834 5834 5834 5833 5833 5832 5832 5832 5832 5832 5833 5833 5833 5834 5834 5834 5834 5834 5834 5834 5834 5834 5834 5834 5834 5834 5834 5833 5833 5832 5832 5831 5830 5830 5829 5828 5827 5826 5825 5824 5823 5822 5822
5836 5837 5837 5837 5836 5836 5835 5834 5833 5832 5832 5831 5831 5831 5830 5830 5829 5828 5827 5827 5827 5827 5828 5828 5828 5828 5827 5827 5827 5828 5828 5828 5828 5827 5827 5828 5827 5828 5829 5830 5831 5832 5832 5832 5831 5831 5831 5830 5830 5830 5831 5831 5831 5832 5832 5832 5833 5833 5833 5833 5833 5833 5833 5833 5833 5833 5833 5833 5833 5833 5832 5831 5831 5831 5830 5829 5828 5827 5826 5825 5824 5823 5822 5822 5821
5834 5834 5834 5834 5834 5834 5833 5832 5831 5830 5830 5829 5829 5829 5829 5828 5827 5827 5826 5825 5825 5825 5825 5825 5825 5825 5824 5824 5824 5824 5824 5825 5826 5825 5825 5826 5825 5826 5827 5827 5828 5829 5829 5829 5829 5829 5829 5829 5828 5828 5829 5829 5830 5830 5831 5831 5831 5832 5832 5832 5832 5832 5832 5832 5832 5832 5832 5832 5832 5832 5831 5831 5830 5830 5829 5828 5828 5827 5826 5825 5824 5823 5822 5821 5821
5832 5832 5832 5832 5832 5832 5831 5830 5829 5828 5828 5827 5827 5827 5827 5826 5826 5825 5824 5823 5822 5822 5822 5823 5823 5822 5821 5820 5820 5820 5820 5822 5823 5824 5824 5824 5824 5824 5824 5824 5825 5826 5827 5827 5827 5827 5828 5827 5827 5827 5827 5827 5828 5829 5829 5830 5830 5830 5830 5830 5830 5831 5831 5831 5831 5831 5831 5831 5831 5831 5830 5830 5830 5830 5829 5828 5827 5827 5826 5825 5824 5823 5822 5821 5821
5830 5830 5830 5830 5830 5830 5830 5829 5828 5827 5827 5826 5825 5825 5824 5824 5823 5823 5822 5821 5820 5820 5820 5820 5820 5819 5818 5817 5817 5817 5817 5819 5821 5821 5821 5821 5821 5821 5821 5822 5823 5824 5825 5825 5826 5826 5826 5826 5826 5826 5825 5826 5826 5827 5828 5828 5829 5829 5829 5829 5829 5829 5830 5830 5830 5830 5830 5830 5830 5830 5829 5829 5829 5829 5829 5828 5827 5826 5825 5824 5823 5822 5821 5821 5821
5828 5828 5829 5829 5829 5828 5828 5827 5826 5826 5825 5824 5824 5823 5822 5822 5822 5821 5820 5819 5818 5818 5818 5818 5817 5816 5814 5814 5814 5814 5815 5817 5818 5819 5818 5818 5818 5819 5819 5820 5821 5822 5823 5823 5824 5824 5824 5824 5824 5824 5824 5824 5825 5826 5826 5827 5827 5827 5827 5828 5828 5828 5828 5829 5829 5829 5829 5829 5829 5829 5828 5829 5828 5828 5828 5827 5826 5826 5825 5823 5822 5822 5822 5821 5821
5827 5827 5827 5827 5826 5826 5826 5825 5825 5824 5824 5823 5822 5821 5820 5819 5819 5819 5819 5817 5816 5816 5815 5815 5814 5813 5812 5812 5812 5812 5813 5815 5816 5816 5815 5815 5815 5816 5817 5818 5819 5820 5821 5821 5821 5822 5822 5823 5822 5822 5822 5823 5823 5824 5825 5825 5826 5826 5826 5827 5827 5827 5827 5827 5828 5828 5828 5828 5828 5828 5828 5828 5828 5827 5827 5826 5826 5825 5824 5824 5822 5821 5822 5821 5821
5825 5825 5825 5825 5825 5824 5824 5824 5824 5823 5823 5822 5821 5820 5819 5818 5817 5817 5816 5815 5814 5813 5812 5812 5812 5811 5810 5809 5809 5809 5810 5812 5813 5813 5813 5813 5813 5814 5814 5815 5816 5817 5818 5819 5819 5820 5821 5821 5820 5820 5820 5821 5822 5823 5823 5824 5825 5825 5826 5826 5826 5826 5826 5826 5827 5827 5827 5827 5827 5827 5827 5827 5826 5826 5826 5825 5825 5824 5824 5824 5823 5822 5821 5821 5821
5823 5823 5823 5823 5822 5822 5822 5822 5822 5822 5821 5820 5819 5818 5817 5816 5815 5815 5814 5813 5812 5811 5810 5810 5809 5809 5807 5806 5806 5806 5808 5809 5809 5810 5810 5811 5811 5812 5812 5813 5814 5815 5816 5816 5817 5818 5819 5819 5819 5819 5819 5820 5820 5822 5823 5823 5824 5825 5826 5825 5825 5825 5825 5825 5826 5826 5826 5826 5826 5826 5826 5825 5825 5825 5825 5824 5824 5824 5824 5824 5824 5823 5821 5820 5820
5821 5821 5820 5820 5820 5820 5820 5820 5820 5820 5819 5818 5817 5816 5815 5813 5812 5813 5812 5811 5810 5809 5809 5808 5807 5806 5804 5803 5803 5804 5805 5805 5805 5806 5807 5808 5809 5809 5810 5810 5811 5813 5813 5814 5814 5816 5816 5817 5817 5817 5818 5818 5819 5820 5822 5822 5823 5825 5825 5824 5824 5824 5824 5824 5825 5825 5825 5825 5825 5825 5825 5824 5824 5824 5823 5823 5823 5823 5823 5823 5823 5823 5822 5820 5820
5819 5819 5819 5818 5818 5818 5818 5818 5818 5817 5816 5816 5815 5813 5813 5811 5810 5810 5810 5808 5808 5807 5806 5805 5804 5803 5801 5800 5800 5801 5802 5803 5803 5804 5805 5806 5807 5806 5807 5807 5808 5810 5811 5811 5812 5813 5814 5815 5815 5816 5816 5817 5817 5819 5820 5821 5822 5823 5823 5823 5823 5823 5823 5823 5823 5824 5824 5824 5824 5824 5823 5823 5823 5823 5822 5822 5821 5821 5822 5822 5822 5822 5821 5821 5820
5817 5817 5816 5816 5816 5816 5815 5815 5815 5814 5813 5813 5812 5811 5810 5809 5808 5808 5806 5806 5806 5805 5803 5802 5801 5800 5798 5798 5798 5798 5800 5801 5801 5801 5802 5803 5804 5804 5804 5805 5806 5808 5808 5808 5809 5810 5811 5812 5813 5814 5814 5815 5816 5817 5818 5819 5820 5821 5821 5821 5822 5822 5822 5821 5821 5822 5823 5823 5823 5823 5822 5822 5822 5821 5821 5820 5820 5820 5820 5821 5821 5820 5820 5820 5820
5814 5814 5813 5813 5813 5813 5813 5813 5812 5812 5811 5810 5809 5808 5807 5807 5806 5805 5804 5803 5803 5802 5800 5799 5798 5797 5796 5796 5796 5796 5797 5798 5798 5798 5798 5800 5801 5801 5801 5802 5803 5804 5805 5806 5807 5808 5809 5810 5810 5811 5812 5813 5814 5815 5816 5817 5818 5818 5818 5819 5820 5821 5822 5821 5821 5821 5821 5821 5822 5822 5821 5821 5821 5820 5820 5819 5819 5819 5819 5819 5819 5819 5819 5819 5819
5811 5811 5811 5811 5811 5811 5811 5811 5810 5809 5808 5807 5806 5806 5805 5804 5803 5802 5802 5801 5800 5799 5797 5796 5795 5795 5793 5793 5793 5794 5794 5795 5795 5795 5796 5797 5799 5799 5799 5799 5800 5801 5802 5804 5806 5806 5806 5807 5807 5808 5809 5811 5811 5812 5814 5815 5816 5816 5817 5817 5818 5819 5820 5820 5820 5820 5820 5820 5820 5821 5821 5820 5820 5819 5818 5818 5817 5817 5818 5818 5818 5818 5817 5817 5817
5809 5808 5808 5808 5808 5808 5809 5808 5808 5807 5806 5805 5804 5803 5802 5801 5800 5799 5798 5797 5796 5795 5794 5793 5793 5791 5790 5790 5791 5791 5791 5792 5792 5793 5794 5795 5796 5797 5797 5797 5797 5798 5800 5802 5803 5803 5803 5804 5805 5806 5808 5808 5809 5810 5812 5813 5814 5814 5815 5816 5816 5817 5817 5818 5818 5818 5819 5819 5819 5819 5819 5819 5818 5818 5817 5816 5816 5816 5816 5817 5817 5816 5816 5816 5816
5807 5806 5806 5806 5806 5806 5806 5806 5805 5804 5803 5802 5801 5800 5799 5799 5797 5796 5795 5794 5793 5792 5791 5791 5789 5788 5787 5788 5788 5788 5788 5788 5789 5791 5792 5792 5793 5794 5794 5795 5795 5796 5798 5799 5800 5801 5801 5803 5804 5806 5807 5807 5807 5809 5810 5811 5811 5812 5813 5813 5814 5815 5815 5816 5816 5816 5817 5817 5817 5817 5817 5817 5816 5816 5815 5815 5814 5815 5815 5815 5815 5815 5814 5814 5814
5804 5804 5804 5804 5804 5804 5803 5803 5802 5802 5801 5800 5799 5798 5797 5796 5795 5794 5793 5791 5790 5789 5788 5788 5787 5786 5786 5785 5785 5785 5785 5786 5787 5789 5789 5790 5790 5791 5791 5793 5794 5795 5796 5797 5798 5799 5800 5801 5802 5804 5805 5805 5805 5806 5807 5808 5809 5810 5811 5811 5812 5813 5814 5814 5814 5814 5815 5815 5815 5816 5815 5815 5814 5813 5813 5813 5813 5813 5813 5813 5813 5813 5812 5812 5812
5802 5802 5802 5802 5802 5801 5800 5800 5800 5799 5798 5798 5796 5795 5795 5794 5793 5791 5790 5789 5787 5786 5786 5785 5785 5785 5784 5782 5782 5782 5783 5784 5785 5786 5787 5787 5788 5788 5789 5790 5792 5793 5795 5795 5796 5797 5797 5798 5800 5801 5803 5803 5803 5804 5805 5806 5807 5807 5808 5809 5810 5811 5811 5812 5812 5813 5813 5813 5813 5813 5813 5813 5812 5811 5811 5811 5811 5811 5811 5812 5812 5811 5811 5810 5810